Wind_Speed
96 95 95 96 94 94 89 93 88 91 90 87 84 84 84 82 80 80 74 75 76 75 77 79 74 69 71 67 72 63 69 68 65 65 67 68 68 69 70 63 64 65 65 70 72 74 76
93 98 97 97 98 95 95 94 93 94 92 92 87 88 87 83 82 82 80 79 82 81 79 78 77 74 72 74 73 67 68 70 67 66 69 69 67 65 62 65 68 67 68 67 69 73 76
94 96 99 96 99 97 98 98 97 96 98 94 92 90 91 90 85 86 86 83 83 85 87 81 76 75 75 79 75 72 68 68 70 70 68 68 67 64 68 71 73 77 74 74 75 78 81
99 96 93 93 94 93 92 93 94 97 101 95 92 93 91 91 90 90 91 90 91 88 88 83 81 80 76 77 77 74 72 69 71 74 75 79 82 82 82 82 78 76 78 76 79 83 85
111 104 102 101 98 96 95 93 92 93 96 96 94 96 97 97 96 95 96 96 92 89 84 85 85 81 78 76 76 77 78 79 80 80 82 83 81 81 80 81 80 85 82 81 77 86 88
114 113 109 108 106 102 102 100 99 97 97 97 95 97 100 101 98 100 98 95 88 85 81 83 83 82 84 81 77 79 78 77 80 82 83 83 83 78 80 83 82 86 86 84 78 80 89
116 116 117 114 112 108 106 105 106 106 105 105 104 103 105 105 102 100 98 93 94 92 87 89 88 83 82 86 82 82 81 83 85 85 84 83 83 81 87 91 92 93 93 92 90 88 98
115 116 115 116 116 114 110 111 111 109 109 111 110 109 106 103 101 100 99 99 101 98 90 88 88 82 85 90 83 84 87 86 86 86 89 90 86 92 92 92 94 97 97 97 97 99 106
117 114 115 108 104 107 109 107 107 109 111 109 110 107 108 108 104 104 101 104 104 103 94 85 87 84 83 84 84 84 87 87 87 87 91 90 89 94 96 96 101 103 107 107 108 110 110
117 116 114 110 110 103 104 103 104 108 109 110 107 109 105 102 98 97 99 102 104 101 90 79 83 78 82 87 88 89 91 93 93 93 99 91 96 100 101 102 111 110 112 117 119 122 123
115 114 115 114 112 107 104 106 104 105 109 109 107 105 105 100 98 95 97 100 100 98 90 80 82 83 87 90 93 92 92 95 98 100 104 91 101 104 105 107 111 113 118 122 127 132 127
123 121 120 117 115 112 112 107 107 108 110 108 109 107 103 102 100 100 104 106 104 99 85 85 89 95 96 94 96 99 100 98 99 100 104 101 106 109 110 113 113 117 121 123 124 113 100
134 132 128 125 125 122 118 115 114 114 116 113 112 109 105 103 103 105 109 109 110 98 91 91 99 101 101 101 100 102 108 105 104 106 108 110 107 111 115 116 118 123 122 115 107 101 88
139 139 137 135 131 129 126 125 124 124 123 122 117 116 114 111 111 112 114 116 115 95 99 103 109 109 105 106 104 105 107 108 112 115 112 114 113 119 122 122 124 122 110 99 88 80 72
143 142 139 137 138 133 132 129 131 130 132 130 128 126 123 120 119 121 125 127 110 103 106 113 117 115 113 111 113 112 114 111 114 117 118 119 120 122 125 126 118 102 94 87 78 70 60
133 135 137 138 136 135 135 132 134 132 133 132 131 130 131 130 129 133 132 127 111 111 116 118 113 116 114 116 117 116 115 115 119 116 118 119 118 118 113 104 96 83 78 72 66 57 53
124 122 127 127 128 131 133 134 134 137 139 140 135 134 130 132 133 135 135 120 116 119 121 120 122 120 120 112 115 116 112 113 114 112 116 119 110 96 91 87 77 72 68 62 59 52 52
117 118 119 119 119 120 122 126 127 133 137 140 138 137 133 136 139 139 133 128 125 122 124 124 124 122 122 120 116 117 117 115 120 119 118 98 89 84 74 67 61 61 55 55 51 49 48
106 107 108 109 111 114 114 114 116 122 124 131 132 131 134 138 140 132 126 124 125 124 125 127 126 123 124 121 119 120 119 114 107 96 88 87 77 65 62 57 55 52 51 49 45 40 39
94 98 100 99 102 104 104 104 110 115 116 120 121 120 116 117 118 116 114 111 112 115 120 118 117 117 118 121 118 113 101 95 91 84 80 70 61 57 53 50 47 45 39 34 28 28 32
82 83 85 87 90 93 94 96 99 101 103 108 113 112 109 110 106 106 104 101 98 96 95 101 99 100 102 103 97 93 86 77 77 73 66 56 50 47 47 44 39 30 26 26 26 27 25
69 71 74 76 76 77 80 83 87 92 93 99 100 99 95 91 96 99 100 96 91 88 86 84 85 86 85 76 74 78 77 66 66 60 52 45 41 42 39 34 29 25 24 27 28 30 29
61 60 61 64 66 67 69 72 74 80 84 87 86 88 87 86 84 82 78 81 87 90 84 78 78 77 76 75 70 57 53 53 50 47 43 38 40 34 30 30 31 28 27 28 34 37 35
53 53 54 58 59 60 59 59 63 66 69 70 72 76 74 71 69 68 72 72 72 76 77 75 72 66 60 52 44 43 46 44 45 40 37 35 38 31 30 30 28 30 31 36 40 40 41
46 47 48 50 51 50 49 51 54 56 58 57 59 62 62 59 59 62 63 59 61 62 61 58 53 46 42 38 37 40 40 41 37 31 32 35 32 31 29 28 29 29 34 37 41 43 48
37 39 40 41 41 42 43 46 47 49 48 49 56 53 50 50 51 60 60 59 58 55 54 44 43 45 41 42 38 38 40 40 30 31 34 31 32 31 32 32 33 40 39 41 44 50 51
32 33 34 35 35 36 38 38 39 42 45 44 45 43 45 46 54 53 54 57 55 52 46 46 45 43 40 40 37 37 37 31 28 30 33 34 35 35 35 38 40 41 42 45 45 50 51
27 28 28 28 28 31 33 33 34 34 38 39 40 44 44 46 48 49 49 47 48 46 46 44 39 37 37 36 35 40 36 26 28 34 35 36 36 38 40 42 42 43 45 43 42 41 39
24 23 23 25 26 28 29 29 29 32 35 37 41 41 42 44 43 43 41 38 31 35 38 38 38 37 36 33 36 35 28 27 30 34 36 38 39 41 43 43 43 44 41 38 34 33 32
Wind_Direction
265 267 267 268 267 266 272 273 268 270 273 272 272 272 275 273 275 273 273 272 273 278 281 281 279 280 281 282 280 278 283 284 283 282 282 282 280 282 284 286 285 285 285 283 281 280 283
264 263 264 265 265 265 266 268 267 269 269 271 272 271 272 273 271 270 271 273 273 277 278 276 279 280 280 279 280 282 283 285 283 282 283 282 283 285 281 279 281 284 284 282 285 286 283
263 262 262 261 262 263 264 264 267 268 267 271 272 270 270 271 270 271 271 272 273 275 279 276 276 278 281 279 280 282 283 282 282 281 280 280 280 278 276 277 277 280 281 283 282 280 282
264 262 262 262 262 263 264 266 266 268 266 267 269 270 270 270 272 272 273 273 275 277 277 276 276 277 281 280 281 280 279 276 277 277 277 277 278 281 284 285 281 279 278 278 282 284 284
268 267 269 269 268 267 267 266 265 265 265 267 268 268 269 270 271 272 273 275 276 276 273 273 275 277 276 277 276 276 276 277 276 277 279 278 278 281 282 280 275 276 277 278 281 285 281
266 266 265 267 269 268 267 267 267 266 265 265 265 266 268 269 269 270 272 274 271 269 270 272 271 274 274 273 274 274 275 276 274 275 276 276 277 279 280 280 280 280 280 279 283 283 284
264 265 266 266 266 266 266 267 266 264 265 265 264 266 268 267 269 268 270 270 270 270 270 270 268 273 273 273 272 276 276 276 277 279 278 278 280 280 278 279 282 285 283 283 282 283 285
263 264 264 264 264 264 264 263 264 263 262 264 264 264 264 266 267 269 268 270 270 271 270 273 274 272 273 273 274 276 275 273 275 278 276 278 279 276 280 284 286 287 287 285 283 283 284
263 263 263 263 265 265 265 262 261 262 262 262 264 264 265 264 267 268 269 270 269 270 269 270 271 271 271 275 278 275 274 274 273 272 274 278 281 280 281 283 285 286 286 283 283 283 285
261 261 262 263 265 265 262 261 261 260 261 260 262 262 263 264 266 267 268 267 268 268 267 267 266 274 275 277 277 277 277 276 277 276 275 276 275 277 280 282 285 286 288 287 288 288 287
261 259 262 265 264 263 263 262 261 261 261 260 260 262 262 263 264 266 266 267 267 266 266 268 269 272 277 276 276 274 275 277 278 279 279 280 279 279 281 283 287 287 288 288 288 289 286
261 261 260 261 263 259 261 262 261 261 261 260 259 260 261 263 264 264 265 266 267 266 270 272 271 272 273 273 276 277 277 276 277 279 283 284 285 284 285 285 286 290 290 290 292 288 287
261 262 261 259 262 261 259 259 259 259 259 259 260 260 261 261 263 262 263 264 266 268 271 273 274 275 274 276 276 275 277 278 279 281 282 284 286 288 288 289 290 292 292 288 286 287 288
257 259 259 258 258 259 257 256 257 258 258 258 258 260 259 260 263 263 262 263 265 270 273 275 273 274 277 276 275 276 277 280 283 285 284 285 286 288 289 290 292 292 290 287 286 287 285
257 256 256 256 256 255 255 257 257 257 257 257 256 257 259 259 260 262 263 264 266 270 271 273 273 274 275 276 276 276 277 277 280 281 284 286 287 288 289 291 291 290 289 287 288 285 281
257 256 255 255 255 253 254 254 254 255 256 256 256 258 258 259 259 262 263 264 266 266 270 271 269 272 274 274 277 277 278 279 280 282 285 286 287 288 289 289 289 288 289 289 284 281 279
257 257 257 257 256 254 254 254 254 255 254 256 257 257 257 258 259 260 263 265 266 267 269 269 271 272 274 273 275 277 280 281 283 286 288 287 289 289 288 288 290 290 286 283 281 279 275
257 257 257 258 256 255 254 255 257 256 256 257 257 258 258 258 259 262 264 267 265 266 268 268 269 271 273 274 275 279 280 284 288 289 289 289 289 288 287 288 287 284 283 281 279 275 275
256 256 256 256 256 255 255 254 255 255 256 257 256 257 258 257 259 262 264 265 265 265 265 267 269 269 270 273 275 279 281 284 286 285 286 287 286 285 284 284 281 281 280 278 277 273 271
253 253 255 254 254 254 253 252 251 252 253 254 255 255 255 257 259 260 263 262 263 263 264 266 268 269 271 273 275 278 281 282 281 282 283 283 282 281 282 281 280 279 274 273 268 264 260
253 254 254 252 252 254 252 252 251 252 251 252 254 254 254 255 257 258 258 258 260 261 264 265 267 270 272 273 275 276 277 279 280 278 276 277 276 278 279 276 276 275 278 277 272 266 266
251 250 250 253 252 251 251 250 250 249 249 250 252 253 253 254 254 255 256 257 258 260 262 264 264 264 267 271 274 276 278 276 270 272 273 272 272 275 274 274 274 272 268 267 271 271 273
251 249 248 248 249 248 246 247 246 247 247 248 249 249 249 250 250 253 256 254 254 255 257 261 263 264 267 271 273 271 263 260 261 264 268 271 269 264 270 273 277 275 272 270 268 270 271
248 247 245 245 245 246 246 245 245 246 247 246 246 246 246 250 250 248 248 248 250 251 252 258 261 261 264 265 260 255 254 256 259 263 267 265 260 259 265 275 278 275 278 274 271 277 277
242 242 241 241 242 243 243 242 242 241 242 242 241 241 241 241 242 243 246 246 243 243 247 250 252 254 253 248 246 246 250 254 260 259 256 256 256 260 264 269 275 276 270 272 277 281 279
238 237 235 235 237 237 235 235 238 237 235 230 232 234 234 232 233 234 237 237 239 241 241 242 244 241 242 236 241 244 247 255 258 247 246 254 258 260 263 266 267 271 276 279 282 282 280
230 228 229 230 231 232 231 232 232 229 227 227 227 225 224 222 227 228 229 231 234 234 235 233 235 241 236 234 236 243 248 252 248 245 248 252 257 261 266 274 280 281 282 284 284 281 280
222 222 222 222 221 221 222 223 225 223 219 220 215 218 218 218 221 222 225 226 226 228 227 228 229 225 223 225 232 239 244 237 238 246 250 256 261 270 278 285 287 288 289 287 284 282 281
211 211 207 209 207 209 211 212 209 208 209 209 211 211 211 215 216 219 221 219 216 210 210 208 211 213 220 224 230 234 236 237 241 247 258 264 271 277 283 288 290 290 290 287 286 283 279
Height
10678 10681 10684 10684 10685 10688 10690 10691 10692 10693 10695 10696 10696 10698 10701 10704 10706 10708 10709 10711 10712 10713 10714 10713 10717 10719 10720 10718 10704 10721 10710 10712 10716 10715 10714 10716 10716 10718 10719 10714 10713 10714 10718 10718 10716 10713 10708
10657 10660 10662 10664 10666 10669 10672 10673 10674 10675 10675 10677 10678 10680 10683 10685 10688 10691 10693 10692 10695 10698 10699 10699 10702 10704 10706 10702 10698 10702 10702 10696 10700 10701 10700 10699 10701 10703 10705 10702 10701 10700 10704 10705 10702 10696 10690
10635 10638 10641 10643 10646 10648 10651 10652 10653 10653 10655 10656 10658 10660 10663 10667 10670 10672 10675 10675 10679 10682 10683 10683 10685 10687 10692 10679 10684 10685 10688 10687 10681 10686 10686 10683 10686 10687 10687 10687 10683 10684 10690 10692 10685 10677 10677
10613 10615 10618 10622 10625 10627 10630 10631 10632 10633 10634 10636 10638 10640 10642 10645 10650 10653 10655 10657 10662 10666 10666 10665 10666 10671 10677 10668 10667 10671 10673 10673 10671 10668 10671 10668 10666 10668 10665 10668 10665 10666 10667 10674 10665 10658 10656
10589 10592 10594 10597 10601 10604 10608 10609 10611 10613 10614 10616 10618 10620 10623 10626 10632 10634 10636 10640 10644 10645 10648 10649 10652 10655 10657 10657 10655 10655 10652 10656 10656 10652 10648 10649 10648 10649 10648 10646 10647 10641 10646 10651 10663 10642 10635
10563 10569 10572 10575 10578 10582 10584 10586 10588 10590 10592 10594 10597 10600 10602 10605 10613 10612 10616 10620 10620 10623 10630 10634 10636 10642 10642 10642 10641 10638 10639 10636 10631 10631 10633 10630 10631 10635 10630 10621 10628 10626 10626 10631 10641 10628 10611
10537 10542 10546 10551 10555 10559 10561 10561 10565 10566 10568 10572 10575 10577 10579 10582 10592 10590 10595 10595 10594 10605 10614 10617 10623 10629 10622 10616 10625 10628 10622 10618 10611 10609 10610 10611 10615 10613 10601 10602 10606 10604 10600 10605 10614 10610 10584
10511 10515 10519 10524 10530 10533 10537 10538 10538 10541 10543 10547 10552 10555 10558 10560 10571 10568 10570 10568 10568 10577 10599 10600 10605 10612 10601 10595 10612 10601 10598 10601 10599 10596 10589 10594 10605 10588 10585 10584 10579 10575 10576 10580 10579 10580 10565
10482 10488 10491 10497 10502 10507 10510 10513 10514 10515 10518 10523 10526 10530 10535 10539 10549 10547 10548 10539 10544 10550 10577 10594 10581 10588 10587 10583 10579 10575 10576 10577 10579 10580 10574 10579 10582 10568 10564 10567 10558 10558 10552 10548 10546 10549 10553
10453 10459 10463 10469 10476 10481 10484 10487 10488 10490 10492 10497 10502 10506 10511 10516 10525 10524 10523 10513 10518 10527 10551 10577 10569 10572 10566 10561 10559 10554 10549 10550 10558 10558 10547 10575 10559 10549 10548 10552 10531 10537 10527 10514 10514 10511 10510
10423 10430 10435 10440 10448 10455 10457 10461 10463 10463 10466 10470 10476 10481 10488 10495 10502 10505 10496 10489 10494 10503 10530 10549 10553 10551 10550 10541 10535 10537 10536 10532 10531 10529 10522 10554 10532 10527 10530 10525 10514 10511 10499 10490 10484 10472 10466
10389 10397 10404 10410 10417 10425 10431 10435 10437 10438 10440 10443 10450 10455 10469 10472 10480 10482 10470 10462 10471 10483 10523 10527 10523 10522 10526 10527 10522 10514 10510 10516 10514 10511 10499 10515 10505 10502 10500 10498 10493 10482 10473 10463 10450 10439 10443
10353 10362 10370 10379 10387 10394 10401 10407 10410 10411 10412 10416 10422 10431 10445 10447 10455 10455 10446 10441 10442 10477 10502 10506 10491 10491 10500 10503 10505 10501 10485 10487 10493 10491 10488 10484 10491 10481 10472 10469 10466 10454 10440 10432 10423 10416 10419
10314 10323 10333 10341 10352 10360 10368 10375 10380 10383 10383 10388 10395 10407 10414 10424 10427 10425 10420 10414 10424 10483 10476 10470 10464 10463 10476 10478 10478 10477 10470 10471 10463 10457 10465 10463 10469 10457 10450 10444 10438 10426 10414 10402 10398 10399 10401
10274 10282 10291 10301 10313 10324 10333 10342 10349 10353 10352 10357 10368 10376 10387 10396 10400 10395 10390 10387 10433 10456 10449 10443 10434 10440 10451 10453 10446 10452 10445 10454 10449 10440 10435 10437 10439 10432 10421 10414 10406 10397 10384 10374 10380 10375 10381
10236 10243 10251 10261 10272 10285 10295 10306 10315 10320 10318 10323 10337 10346 10361 10365 10369 10361 10356 10377 10418 10422 10417 10408 10418 10420 10423 10429 10421 10419 10425 10424 10417 10420 10418 10412 10407 10404 10396 10388 10374 10374 10365 10359 10355 10359 10358
10199 10208 10215 10226 10236 10247 10259 10268 10280 10286 10285 10284 10307 10313 10334 10335 10333 10326 10331 10371 10389 10394 10386 10386 10387 10395 10398 10410 10398 10400 10404 10399 10394 10399 10392 10383 10381 10375 10369 10361 10358 10350 10346 10345 10340 10340 10339
10164 10173 10183 10192 10201 10211 10225 10235 10244 10252 10252 10253 10268 10276 10304 10298 10298 10304 10321 10347 10358 10366 10363 10364 10365 10369 10371 10373 10381 10381 10380 10378 10370 10371 10364 10356 10355 10354 10348 10345 10342 10336 10334 10328 10327 10325 10325
10133 10141 10149 10157 10166 10177 10189 10202 10210 10218 10220 10223 10230 10243 10259 10267 10266 10289 10303 10316 10324 10336 10338 10339 10343 10347 10349 10353 10357 10357 10356 10362 10357 10348 10347 10339 10337 10335 10332 10330 10328 10326 10321 10317 10315 10314 10313
10103 10110 10119 10127 10135 10146 10156 10165 10175 10182 10189 10192 10195 10208 10227 10236 10251 10265 10280 10292 10298 10306 10310 10313 10319 10325 10332 10331 10335 10337 10336 10341 10334 10331 10330 10322 10321 10319 10319 10317 10316 10314 10308 10306 10306 10306 10303
10078 10084 10089 10098 10110 10118 10128 10137 10146 10152 10159 10161 10166 10179 10204 10214 10232 10241 10246 10261 10273 10283 10288 10290 10302 10308 10306 10312 10314 10317 10316 10320 10315 10312 10310 10311 10308 10307 10306 10306 10305 10302 10299 10297 10296 10295 10296
10054 10062 10069 10076 10085 10093 10102 10111 10118 10123 10130 10133 10149 10162 10176 10194 10203 10211 10223 10243 10256 10262 10269 10277 10280 10281 10285 10294 10298 10299 10298 10302 10294 10296 10298 10300 10296 10296 10296 10295 10295 10295 10293 10291 10289 10288 10289
10034 10043 10051 10057 10064 10072 10079 10086 10094 10098 10106 10117 10132 10142 10152 10167 10181 10190 10211 10223 10231 10234 10247 10259 10260 10266 10273 10276 10279 10284 10281 10280 10283 10284 10284 10288 10286 10288 10286 10286 10285 10287 10285 10283 10281 10279 10282
10019 10026 10033 10039 10046 10052 10061 10069 10074 10081 10089 10102 10112 10120 10133 10151 10165 10183 10184 10195 10209 10217 10228 10237 10245 10252 10259 10261 10264 10266 10268 10269 10273 10274 10275 10278 10277 10278 10277 10276 10277 10276 10275 10273 10270 10272 10270
10006 10012 10018 10025 10032 10040 10047 10053 10059 10067 10075 10087 10095 10105 10120 10137 10150 10161 10171 10183 10189 10199 10210 10221 10231 10239 10246 10249 10252 10256 10258 10259 10263 10267 10267 10268 10270 10270 10269 10269 10269 10270 10267 10266 10263 10263 10258
9994 10000 10006 10013 10020 10027 10034 10040 10046 10054 10064 10072 10079 10094 10109 10123 10135 10137 10151 10164 10176 10187 10199 10213 10220 10225 10233 10237 10241 10246 10248 10252 10256 10257 10259 10261 10260 10262 10260 10261 10262 10257 10259 10257 10256 10251 10246
9985 9991 9997 10004 10011 10018 10024 10031 10036 10043 10052 10063 10073 10086 10096 10109 10112 10128 10141 10150 10164 10178 10192 10199 10207 10216 10222 10228 10231 10236 10241 10245 10247 10248 10251 10252 10251 10252 10252 10252 10252 10249 10248 10244 10243 10237 10231
9979 9985 9992 9998 10004 10010 10015 10022 10029 10036 10046 10055 10067 10074 10087 10097 10107 10118 10130 10145 10157 10170 10180 10190 10200 10205 10211 10218 10223 10229 10233 10237 10239 10241 10242 10243 10243 10243 10242 10242 10240 10237 10233 10231 10227 10223 10221
9975 9981 9987 9992 9998 10004 10010 10017 10025 10031 10039 10049 10058 10069 10080 10090 10102 10113 10126 10140 10154 10163 10171 10181 10190 10197 10204 10211 10217 10221 10225 10229 10232 10234 10234 10234 10234 10234 10234 10231 10229 10224 10220 10217 10215 10213 10210